This is the latest recevied weather packets stored in our database for station/object RV1CJ-14. If no packets are shown the sender has not sent any weather packets the latest 10 day(s).
| Time | Temp. | Humidity | Pressure | Rain* | Wind** | Luminosity | Snow |
|---|---|---|---|---|---|---|---|
| 1777818003 | 11.67° C | 74% | 1004.9 hPa | 0 mm | - | 37 W/m² | - |
| 1777817403 | 11.67° C | 74% | 1004.8 hPa | 0 mm | - | 63 W/m² | - |
| 1777816803 | 12.22° C | 73% | 1004.8 hPa | 0 mm | - | 76 W/m² | - |
| 1777816203 | 12.78° C | 72% | 1004.6 hPa | 0 mm | - | 79 W/m² | - |
| 1777815603 | 12.78° C | 73% | 1004.6 hPa | 0 mm | - | 74 W/m² | - |
| 1777815003 | 12.22° C | 75% | 1004.5 hPa | 0 mm | - | 100 W/m² | - |
| 1777814403 | 11.11° C | 77% | 1004.5 hPa | 0 mm | - | 98 W/m² | - |
| 1777813803 | 11.11° C | 78% | 1004.5 hPa | 0 mm | - | 40 W/m² | - |
| 1777813203 | 10.56° C | 78% | 1004.5 hPa | 0 mm | - | 65 W/m² | - |
| 1777812603 | 10.56° C | 79% | 1004.5 hPa | 0 mm | - | 46 W/m² | - |
| 1777812003 | 10.56° C | 80% | 1004.5 hPa | 0 mm | - | 76 W/m² | - |
| 1777811403 | 10° C | 79% | 1004.5 hPa | 0 mm | - | 118 W/m² | - |
| 1777810803 | 10° C | 79% | 1004.5 hPa | 0 mm | - | 79 W/m² | - |
| 1777810203 | 10.56° C | 77% | 1004.4 hPa | 0 mm | - | 62 W/m² | - |
| 1777809603 | 11.11° C | 75% | 1004.2 hPa | 0 mm | - | 46 W/m² | - |
| 1777809003 | 12.22° C | 73% | 1004.2 hPa | 0 mm | - | 47 W/m² | - |
| 1777808403 | 12.78° C | 72% | 1003.9 hPa | 0 mm | - | 53 W/m² | - |
| 1777807803 | 12.78° C | 71% | 1003.9 hPa | 0 mm | - | 63 W/m² | - |
| 1777807203 | 12.78° C | 71% | 1003.8 hPa | 0 mm | - | 76 W/m² | - |
| 1777806603 | 12.78° C | 70% | 1003.8 hPa | 0 mm | - | 76 W/m² | - |
| 1777806003 | 13.33° C | 68% | 1003.8 hPa | 0 mm | - | 144 W/m² | - |
| 1777805403 | 13.89° C | 67% | 1003.6 hPa | 0 mm | - | 114 W/m² | - |
| 1777804803 | 14.44° C | 67% | 1003.5 hPa | 0 mm | - | 183 W/m² | - |
| 1777804203 | 13.89° C | 68% | 1003.5 hPa | 0 mm | - | 165 W/m² | - |
| 1777803603 | 13.89° C | 68% | 1003.4 hPa | 0 mm | - | 109 W/m² | - |
* Rain latest hour (hover to see other rain measurements)
** Current wind speed in m/s (hover to see current wind gust speed)